Belize, Belize

10:40 AM CST on February 06, 2016 (GMT -0600)
Philip S W Goldson International

Weather History for MZBZ - March, 2015

Change the Weather History Date:

Tuesday, March 3, 2015

  Actual Average Record
Temperature  
Mean Temperature 79 °F -  
Max Temperature 86 °F 85 °F 87 °F (2001)
Min Temperature 72 °F 71 °F 56 °F (2013)
Cooling Degree Days 14    
Growing Degree Days 29 (Base 50)    
Moisture  
Dew Point 73 °F    
Average Humidity 76    
Maximum Humidity 95    
Minimum Humidity 59    
Precipitation  
Precipitation 0.00 in 0.08 in - ()
Sea Level Pressure  
Sea Level Pressure 30.00 in    
Wind  
Wind Speed 5 mph ()    
Max Wind Speed 12 mph    
Max Gust Speed -    
Visibility 8.3 miles    
Events      
Averages and records for this station are not official NWS values.
T = Trace of Precipitation, MM = Missing Value Source: Averaged Metar Reports

Daily Weather History Graph

Daily Weather History Graph

Search for Another Location

Airport or City:

Trip Planner

Search our weather history database for the weather conditions in past years. The results will help you decide how hot, cold, wet, or windy it might be!

Date:

Astronomy

Mar. 03, 2015 Rise Set
Actual Time 6:10 AM CST 6:00 PM CST
Civil Twilight 5:48 AM CST 6:21 PM CST
Nautical Twilight 5:23 AM CST 6:47 PM CST
Astronomical Twilight 4:58 AM CST 7:12 PM CST
Moon 4:32 PM CST (3/3) 4:38 AM CST (3/3)
Length of Visible Light 12h 33m
Length of Day
11h 49m
Waxing Gibbous, 96% of the Moon is Illuminated
Mar 3
Waxing Gibbous
Mar 5
Full
Mar 13
Last Quarter
Mar 20
New
Mar 27
First Quarter

Hourly Weather History & Observations

Time (CST) Temp. Heat Index Dew Point Humidity Pressure Visibility Wind Dir Wind Speed Gust Speed Precip Events Conditions
12:00 AM 76 °F - 72 °F 84% 30.06 in 12 mi ESE 4.6 mph - -   Mostly Cloudy
3:00 AM 73 °F - 72 °F 95% 30.00 in 12 mi Calm Calm - -   Scattered Clouds
5:00 AM 75.2 °F - 71.6 °F 89% 30.00 in 6.2 mi ESE 4.6 mph - N/A   Partly Cloudy
6:00 AM 74 °F - 72 °F 90% 30.02 in 12 mi Calm Calm - -   Mostly Cloudy
6:00 AM 73.4 °F - 71.6 °F 94% 30.01 in 6.2 mi Calm Calm - N/A   Mostly Cloudy
7:00 AM 73.4 °F - 71.6 °F 94% 30.03 in 6.2 mi Calm Calm - N/A   Mostly Cloudy
8:00 AM 82.4 °F 88.2 °F 73.4 °F 74% 30.04 in 6.2 mi East 9.2 mph - N/A   Mostly Cloudy
9:00 AM 83 °F - 73 °F 64% 30.06 in 14 mi ENE 6.9 mph - -   Partly Cloudy
9:00 AM 84.2 °F 90.9 °F 73.4 °F 70% 30.05 in 6.2 mi ENE 6.9 mph - N/A   Scattered Clouds
10:00 AM 84.2 °F 90.9 °F 73.4 °F 70% 30.07 in 6.2 mi East 9.2 mph - N/A   Mostly Cloudy
11:00 AM 84.2 °F 89.6 °F 71.6 °F 66% 30.05 in 6.2 mi East 10.4 mph - N/A   Scattered Clouds
12:00 PM 84 °F - 73 °F 61% 30.04 in 14 mi East 9.2 mph - -   Partly Cloudy
12:00 PM 86.0 °F 93.4 °F 73.4 °F 66% 30.03 in 6.2 mi East 9.2 mph - N/A   Scattered Clouds
1:00 PM 84.2 °F 89.6 °F 71.6 °F 66% 30.00 in 6.2 mi ENE 10.4 mph - N/A   Scattered Clouds
2:00 PM 86.0 °F 93.4 °F 73.4 °F 66% 29.96 in 6.2 mi East 11.5 mph - N/A   Scattered Clouds
3:00 PM 85 °F - 73 °F 59% 29.95 in 14 mi ENE 11.5 mph - -   Mostly Cloudy
3:00 PM 84.2 °F 90.9 °F 73.4 °F 70% 29.94 in 6.2 mi ENE 11.5 mph - N/A   Mostly Cloudy
4:00 PM 84.2 °F 90.9 °F 73.4 °F 70% 29.93 in 6.2 mi East 11.5 mph - N/A   Scattered Clouds
5:00 PM 82.4 °F 88.2 °F 73.4 °F 74% 29.94 in 6.2 mi East 8.1 mph - N/A   Mostly Cloudy
6:00 PM 81 °F - 73 °F 71% 29.95 in 12 mi East 6.9 mph - -   Mostly Cloudy
6:00 PM 80.6 °F 85.4 °F 73.4 °F 79% 29.94 in 6.2 mi East 6.9 mph - N/A   Mostly Cloudy
7:00 PM 78.8 °F - 73.4 °F 83% 29.95 in 6.2 mi East 5.8 mph - N/A   Scattered Clouds
8:00 PM 78.8 °F - 73.4 °F 83% 29.96 in 6.2 mi East 5.8 mph - N/A   Scattered Clouds
9:00 PM 79 °F - 73 °F 76% 29.98 in 12 mi East 4.6 mph - -   Partly Cloudy
9:00 PM 78.8 °F - 73.4 °F 83% 29.97 in 6.2 mi East 4.6 mph - N/A   Scattered Clouds